Time,TemperatureF,DewpointF,PressureIn,WindDirection,WindDirectionDegrees,WindSpeedMPH,WindSpeedGustMPH,Humidity,HourlyPrecipIn,Conditions,Clouds,dailyrainin,SoftwareType,DateUTC
2013-07-08 00:01:00,79.0,66.0,30.04,SSW,200,6.0,8.0,65,-99.99,,,-99.99,,2013-07-08 05:01:00,
2013-07-08 00:12:00,78.0,66.0,30.04,SSW,195,7.0,8.0,66,-99.99,,,-99.99,,2013-07-08 05:12:00,
2013-07-08 00:22:00,78.0,66.0,30.04,SSW,195,7.0,8.0,66,-99.99,,,-99.99,,2013-07-08 05:22:00,
2013-07-08 00:33:00,79.0,66.0,30.04,SSW,200,10.0,13.0,64,-99.99,,,-99.99,,2013-07-08 05:33:00,
2013-07-08 00:43:00,80.0,66.0,30.04,SSW,205,9.0,13.0,63,-99.99,,,-99.99,,2013-07-08 05:43:00,
2013-07-08 00:53:00,78.0,65.0,30.05,SSW,195,8.0,9.0,65,-99.99,,,-99.99,,2013-07-08 05:53:00,
2013-07-08 01:01:00,78.0,65.0,30.05,SSW,195,8.0,9.0,65,-99.99,,,-99.99,,2013-07-08 06:01:00,
2013-07-08 01:12:00,79.0,66.0,30.05,SSW,205,7.0,10.0,65,-99.99,,,-99.99,,2013-07-08 06:12:00,
2013-07-08 01:33:00,78.0,65.0,30.06,SSW,195,6.0,8.0,66,-99.99,,,-99.99,,2013-07-08 06:33:00,
2013-07-08 01:43:00,77.0,66.0,30.06,SSW,200,6.0,7.0,67,-99.99,,,-99.99,,2013-07-08 06:43:00,
2013-07-08 02:02:00,76.0,66.0,30.05,SSW,195,7.0,8.0,69,-99.99,,,-99.99,,2013-07-08 07:02:00,
2013-07-08 02:12:00,77.0,66.0,30.05,SSW,205,5.0,8.0,68,-99.99,,,-99.99,,2013-07-08 07:12:00,
2013-07-08 02:22:00,77.0,66.0,30.05,SSW,205,5.0,8.0,68,-99.99,,,-99.99,,2013-07-08 07:22:00,
2013-07-08 02:34:00,76.0,66.0,30.05,South,190,6.0,8.0,71,-99.99,,,-99.99,,2013-07-08 07:34:00,
2013-07-08 02:44:00,76.0,66.0,30.05,SSW,195,6.0,8.0,71,-99.99,,,-99.99,,2013-07-08 07:44:00,
2013-07-08 03:02:00,76.0,66.0,30.05,SSW,200,7.0,10.0,71,-99.99,,,-99.99,,2013-07-08 08:02:00,
2013-07-08 03:12:00,76.0,66.0,30.05,South,185,7.0,9.0,72,-99.99,,,-99.99,,2013-07-08 08:12:00,
2013-07-08 03:33:00,76.0,66.0,30.05,South,185,7.0,8.0,73,-99.99,,,-99.99,,2013-07-08 08:33:00,
2013-07-08 03:42:00,75.0,67.0,30.05,SSW,195,9.0,10.0,74,-99.99,,,-99.99,,2013-07-08 08:42:00,
2013-07-08 04:02:00,75.0,67.0,30.04,SSW,195,7.0,10.0,74,-99.99,,,-99.99,,2013-07-08 09:02:00,
2013-07-08 04:11:00,76.0,67.0,30.04,SSW,200,9.0,11.0,74,-99.99,,,-99.99,,2013-07-08 09:11:00,
2013-07-08 04:34:00,76.0,67.0,30.04,SSW,200,8.0,13.0,73,-99.99,,,-99.99,,2013-07-08 09:34:00,
2013-07-08 04:43:00,76.0,67.0,30.04,SSW,200,9.0,13.0,73,-99.99,,,-99.99,,2013-07-08 09:43:00,
2013-07-08 05:02:00,76.0,67.0,30.04,SSW,205,8.0,11.0,73,-99.99,,,-99.99,,2013-07-08 10:02:00,
2013-07-08 05:11:00,76.0,67.0,30.05,SSW,195,7.0,11.0,74,-99.99,,,-99.99,,2013-07-08 10:11:00,
2013-07-08 05:22:00,76.0,67.0,30.05,SSW,195,7.0,11.0,74,-99.99,,,-99.99,,2013-07-08 10:22:00,
2013-07-08 05:34:00,76.0,67.0,30.05,SW,215,9.0,13.0,76,-99.99,,,-99.99,,2013-07-08 10:34:00,
2013-07-08 05:43:00,75.0,67.0,30.06,SW,220,9.0,13.0,76,-99.99,,,-99.99,,2013-07-08 10:43:00,
2013-07-08 05:53:00,76.0,67.0,30.06,SW,215,7.0,11.0,76,-99.99,,,-99.99,,2013-07-08 10:53:00,
2013-07-08 06:02:00,76.0,67.0,30.06,SW,215,7.0,11.0,76,-99.99,,,-99.99,,2013-07-08 11:02:00,
2013-07-08 06:11:00,75.0,67.0,30.06,SW,220,8.0,12.0,76,-99.99,,,-99.99,,2013-07-08 11:11:00,
2013-07-08 06:33:00,75.0,67.0,30.07,SSW,205,7.0,11.0,77,-99.99,,,-99.99,,2013-07-08 11:33:00,
2013-07-08 06:43:00,75.0,68.0,30.07,SSW,205,7.0,12.0,78,-99.99,,,-99.99,,2013-07-08 11:43:00,
2013-07-08 07:01:00,75.0,68.0,30.07,SSW,200,6.0,10.0,79,-99.99,,,-99.99,,2013-07-08 12:01:00,
2013-07-08 07:11:00,75.0,68.0,30.07,SSW,195,7.0,12.0,79,-99.99,,,-99.99,,2013-07-08 12:11:00,
2013-07-08 07:34:00,75.0,68.0,30.07,SW,215,9.0,11.0,78,-99.99,,,-99.99,,2013-07-08 12:34:00,
2013-07-08 07:43:00,76.0,68.0,30.07,SW,215,10.0,13.0,78,-99.99,,,-99.99,,2013-07-08 12:43:00,
2013-07-08 08:02:00,76.0,68.0,30.07,SSW,210,9.0,15.0,77,-99.99,,,-99.99,,2013-07-08 13:02:00,
2013-07-08 08:11:00,76.0,69.0,30.07,SW,220,9.0,14.0,77,-99.99,,,-99.99,,2013-07-08 13:11:00,
2013-07-08 08:33:00,78.0,69.0,30.07,SW,215,9.0,13.0,76,-99.99,,,-99.99,,2013-07-08 13:33:00,
2013-07-08 08:42:00,78.0,70.0,30.08,SW,220,10.0,15.0,75,-99.99,,,-99.99,,2013-07-08 13:42:00,
2013-07-08 09:02:00,79.0,69.0,30.08,SW,220,12.0,17.0,73,-99.99,,,-99.99,,2013-07-08 14:02:00,
2013-07-08 09:12:00,80.0,70.0,30.08,SW,235,10.0,15.0,72,-99.99,,,-99.99,,2013-07-08 14:12:00,
2013-07-08 09:22:00,80.0,70.0,30.08,SW,235,10.0,15.0,72,-99.99,,,-99.99,,2013-07-08 14:22:00,
2013-07-08 09:34:00,82.0,70.0,30.09,WSW,245,11.0,16.0,67,-99.99,,,-99.99,,2013-07-08 14:34:00,
2013-07-08 10:02:00,84.0,71.0,30.10,SW,235,10.0,17.0,65,-99.99,,,-99.99,,2013-07-08 15:02:00,
2013-07-08 10:11:00,85.0,71.0,30.09,SW,235,14.0,18.0,63,-99.99,,,-99.99,,2013-07-08 15:11:00,
2013-07-08 10:22:00,85.0,71.0,30.09,SW,235,14.0,18.0,63,-99.99,,,-99.99,,2013-07-08 15:22:00,
2013-07-08 10:33:00,86.0,71.0,30.09,WSW,250,11.0,19.0,61,-99.99,,,-99.99,,2013-07-08 15:33:00,
2013-07-08 10:43:00,87.0,71.0,30.09,WSW,250,13.0,17.0,60,-99.99,,,-99.99,,2013-07-08 15:43:00,
2013-07-08 11:01:00,87.0,71.0,30.09,WSW,250,13.0,18.0,58,-99.99,,,-99.99,,2013-07-08 16:01:00,
2013-07-08 11:11:00,87.0,70.0,30.09,West,265,10.0,16.0,56,-99.99,,,-99.99,,2013-07-08 16:11:00,
2013-07-08 11:33:00,89.0,71.0,30.09,WSW,250,7.0,16.0,55,-99.99,,,-99.99,,2013-07-08 16:33:00,
2013-07-08 11:43:00,89.0,70.0,30.09,SW,230,13.0,18.0,54,-99.99,,,-99.99,,2013-07-08 16:43:00,
2013-07-08 12:07:00,90.0,70.0,30.09,West,275,6.0,14.0,53,-99.99,,,-99.99,,2013-07-08 17:07:00,
2013-07-08 12:14:00,91.0,70.0,30.09,West,270,7.0,15.0,51,-99.99,,,-99.99,,2013-07-08 17:14:00,
2013-07-08 12:28:00,91.0,70.0,30.09,West,270,7.0,15.0,51,-99.99,,,-99.99,,2013-07-08 17:28:00,
2013-07-08 12:30:00,91.0,69.0,30.09,WSW,255,9.0,15.0,48,-99.99,,,-99.99,,2013-07-08 17:30:00,
2013-07-08 12:37:00,91.0,68.0,30.09,SW,235,10.0,17.0,48,-99.99,,,-99.99,,2013-07-08 17:37:00,
2013-07-08 13:23:00,91.0,69.0,30.09,WSW,255,9.0,15.0,48,-99.99,,,-99.99,,2013-07-08 18:23:00,
2013-07-08 13:30:00,90.0,68.0,30.08,SW,220,10.0,15.0,50,-99.99,,,-99.99,,2013-07-08 18:30:00,
2013-07-08 13:43:00,90.0,67.0,30.09,West,260,9.0,15.0,48,-99.99,,,-99.99,,2013-07-08 18:43:00,
2013-07-08 13:50:00,90.0,67.0,30.09,SSW,205,12.0,14.0,46,-99.99,,,-99.99,,2013-07-08 18:50:00,
2013-07-08 14:11:00,90.0,68.0,30.09,SW,235,9.0,17.0,49,-99.99,,,-99.99,,2013-07-08 19:11:00,
2013-07-08 14:19:00,90.0,68.0,30.08,SW,220,10.0,15.0,50,-99.99,,,-99.99,,2013-07-08 19:19:00,
2013-07-08 14:38:00,92.0,70.0,30.08,SW,235,11.0,16.0,49,-99.99,,,-99.99,,2013-07-08 19:38:00,
2013-07-08 14:51:00,92.0,69.0,30.08,SW,225,12.0,20.0,47,-99.99,,,-99.99,,2013-07-08 19:51:00,
2013-07-08 15:13:00,92.0,70.0,30.07,SW,235,13.0,19.0,49,-99.99,,,-99.99,,2013-07-08 20:13:00,
2013-07-08 15:43:00,93.0,69.0,30.07,WSW,250,12.0,19.0,46,-99.99,,,-99.99,,2013-07-08 20:43:00,
2013-07-08 15:50:00,93.0,68.0,30.07,WSW,245,13.0,18.0,44,-99.99,,,-99.99,,2013-07-08 20:50:00,
2013-07-08 16:13:00,92.0,68.0,30.06,SW,220,12.0,18.0,45,-99.99,,,-99.99,,2013-07-08 21:13:00,
2013-07-08 16:21:00,92.0,68.0,30.06,SW,215,11.0,18.0,45,-99.99,,,-99.99,,2013-07-08 21:21:00,
2013-07-08 16:51:00,92.0,68.0,30.06,SSW,210,13.0,17.0,46,-99.99,,,-99.99,,2013-07-08 21:51:00,
2013-07-08 17:00:00,92.0,67.0,30.06,SSW,205,11.0,16.0,44,-99.99,,,-99.99,,2013-07-08 22:00:00,
2013-07-08 17:22:00,91.0,67.0,30.05,SSW,195,10.0,15.0,46,-99.99,,,-99.99,,2013-07-08 22:22:00,
2013-07-08 17:30:00,90.0,71.0,30.05,SSW,195,7.0,12.0,54,-99.99,,,-99.99,,2013-07-08 22:30:00,
2013-07-08 17:43:00,90.0,70.0,30.05,SSW,200,9.0,13.0,51,-99.99,,,-99.99,,2013-07-08 22:43:00,
2013-07-08 17:59:00,90.0,71.0,30.05,SSW,205,7.0,11.0,54,-99.99,,,-99.99,,2013-07-08 22:59:00,
2013-07-08 18:14:00,90.0,71.0,30.05,SSW,205,7.0,11.0,54,-99.99,,,-99.99,,2013-07-08 23:14:00,
2013-07-08 18:53:00,89.0,71.0,30.04,South,175,5.0,9.0,55,-99.99,,,-99.99,,2013-07-08 23:53:00,
2013-07-08 19:14:00,89.0,70.0,30.03,South,175,6.0,9.0,54,-99.99,,,-99.99,,2013-07-09 00:14:00,
2013-07-08 19:22:00,89.0,71.0,30.03,South,170,6.0,9.0,54,-99.99,,,-99.99,,2013-07-09 00:22:00,
2013-07-08 19:42:00,90.0,69.0,30.03,South,190,6.0,11.0,51,-99.99,,,-99.99,,2013-07-09 00:42:00,
2013-07-08 19:53:00,89.0,68.0,30.03,South,180,8.0,11.0,50,-99.99,,,-99.99,,2013-07-09 00:53:00,
2013-07-08 19:59:00,89.0,68.0,30.03,South,185,7.0,9.0,51,-99.99,,,-99.99,,2013-07-09 00:59:00,
2013-07-08 20:13:00,89.0,68.0,30.03,South,185,7.0,9.0,51,-99.99,,,-99.99,,2013-07-09 01:13:00,
2013-07-08 20:20:00,-999.0,-99.9,30.03,South,180,6.0,6.0,56,-99.99,,,-99.99,,2013-07-09 01:20:00,
2013-07-08 20:53:00,87.0,69.0,30.03,South,185,6.0,9.0,54,-99.99,,,-99.99,,2013-07-09 01:53:00,
2013-07-08 21:00:00,87.0,69.0,30.03,South,180,6.0,6.0,56,-99.99,,,-99.99,,2013-07-09 02:00:00,
2013-07-08 21:44:00,84.0,69.0,30.03,South,180,6.0,8.0,61,-99.99,,,-99.99,,2013-07-09 02:44:00,
2013-07-08 22:00:00,84.0,69.0,30.03,South,180,6.0,7.0,61,-99.99,,,-99.99,,2013-07-09 03:00:00,
2013-07-08 22:13:00,84.0,69.0,30.03,South,180,6.0,7.0,61,-99.99,,,-99.99,,2013-07-09 03:13:00,
2013-07-08 22:22:00,83.0,69.0,30.03,South,185,6.0,7.0,62,-99.99,,,-99.99,,2013-07-09 03:22:00,
2013-07-08 22:43:00,83.0,69.0,30.04,South,180,6.0,7.0,63,-99.99,,,-99.99,,2013-07-09 03:43:00,
2013-07-08 22:52:00,82.0,69.0,30.04,South,185,6.0,7.0,65,-99.99,,,-99.99,,2013-07-09 03:52:00,
2013-07-08 23:02:00,82.0,69.0,30.04,SSW,195,6.0,8.0,66,-99.99,,,-99.99,,2013-07-09 04:02:00,
2013-07-08 23:11:00,81.0,69.0,30.05,SSW,200,4.0,6.0,67,-99.99,,,-99.99,,2013-07-09 04:11:00,
2013-07-08 23:22:00,81.0,69.0,30.05,SSW,200,4.0,6.0,67,-99.99,,,-99.99,,2013-07-09 04:22:00,
2013-07-08 23:34:00,80.0,69.0,30.05,SSW,195,6.0,7.0,69,-99.99,,,-99.99,,2013-07-09 04:34:00,
2013-07-08 23:42:00,80.0,69.0,30.05,SSW,200,6.0,7.0,69,-99.99,,,-99.99,,2013-07-09 04:42:00,